Location: Boiro
(42.6475°N, 8.8834°W)
Time: 00:30:44
(UTC+01:00)

A-11 Canister half - Pass Details

Date: 01 December 2021
Orbit: 1516 x 1684 km, 47.2° (Epoch: 18 January)

Event Time Altitude Azimuth Distance (km) Brightness Sun altitude
Rises 07:15:32 0° 192° (SSW) 4,724 11.6 -16.2°
Reaches altitude 10° 07:19:13 10° 180° (S) 3,769 11.2 -15.5°
Maximum altitude 07:26:40 26° 128° (SE) 2,763 11.1 -14.2°
Drops below altitude 10° 07:34:18 10° 77° (ENE) 3,887 12.1 -12.9°
Sets 07:38:08 0° 66° (ENE) 4,899 12.4 -12.2°
